Theta_e
297 298 299 300 299 299 299 300 301 299 303 304 303 304 306 308 303 301 309 312 310 312 314 316 322 325 324 324 324 326 326 327 333 336 332 327 324 328 330 340 342 344 345 355 356 355 355 355 354 354 354 356 358 359 359 360 360 360 361 361 362 363 364 362 366 368 368 367 366 365 365 365 362 361 360 359 359 361 364 362 359 357 357 359 362 363 366
296 297 298 298 298 299 299 300 301 301 300 303 305 304 306 306 307 308 309 311 311 314 315 316 322 324 325 324 325 326 327 325 329 331 333 328 329 328 330 337 341 344 346 351 356 357 359 356 355 352 354 357 356 356 357 358 359 360 361 362 363 363 363 364 367 369 370 370 367 368 365 365 365 362 361 361 357 358 361 362 362 361 360 358 360 362 363
293 296 297 297 297 297 296 299 300 301 301 302 303 304 305 307 306 307 307 308 308 315 319 319 322 326 324 324 323 323 324 325 329 330 330 331 331 333 335 338 338 343 348 349 353 357 359 358 355 354 355 357 356 355 356 357 358 359 360 363 362 362 365 367 368 371 371 369 370 369 368 365 365 365 363 362 361 364 364 364 365 366 362 357 357 361 362
290 294 294 296 298 297 295 296 298 300 300 299 301 301 305 305 305 306 306 306 307 313 317 318 323 324 323 323 325 325 326 326 326 324 323 325 330 333 335 338 342 344 343 345 350 353 355 356 356 355 358 355 356 355 355 356 356 357 359 360 361 365 366 368 369 370 370 370 370 369 368 368 368 367 363 364 365 366 362 363 368 363 360 359 362 359 361
289 293 296 295 295 295 292 293 296 300 301 303 304 305 307 307 308 305 303 304 311 314 324 321 321 323 323 325 325 325 326 329 326 326 327 331 332 336 339 340 343 341 339 341 345 349 355 356 354 354 355 354 356 357 357 357 358 357 358 359 362 366 367 368 370 370 372 371 370 368 369 369 369 368 367 365 363 362 361 364 365 366 366 362 362 361 361
289 293 294 295 292 286 288 301 304 303 302 303 301 302 304 307 307 306 309 311 317 321 321 320 320 321 322 325 326 328 328 327 329 335 338 338 340 340 343 344 344 346 343 344 348 353 354 356 357 356 357 354 357 357 357 358 358 359 360 360 363 364 367 369 370 371 372 371 370 370 370 370 370 368 366 365 363 362 363 366 367 366 363 364 364 366 364
288 292 293 289 284 287 299 303 305 306 306 305 303 305 306 309 310 311 311 313 315 318 319 321 321 323 324 325 325 326 329 333 333 332 332 333 334 336 339 342 345 349 354 357 357 358 356 351 353 358 355 354 357 357 357 356 358 361 359 362 365 365 366 368 370 371 371 371 371 371 371 370 371 369 367 367 365 363 362 364 366 367 365 364 365 366 363
291 289 289 281 284 296 300 303 306 308 306 306 305 308 313 314 314 316 315 315 315 318 319 319 322 322 323 324 326 329 329 328 327 326 327 329 330 332 336 340 344 349 352 355 357 359 362 361 355 353 356 355 354 355 356 356 357 358 360 364 362 365 366 368 369 371 370 371 371 371 370 370 370 369 368 369 368 365 364 362 366 367 368 366 365 365 365
285 287 287 288 295 294 297 299 302 305 304 304 303 298 308 315 315 315 315 316 317 317 317 319 320 322 321 321 324 327 325 323 324 324 325 327 329 332 335 338 342 349 354 356 359 362 361 359 357 351 354 356 354 354 354 354 356 356 357 360 362 365 365 366 368 370 370 370 371 370 370 369 369 369 369 369 368 368 364 362 362 365 367 365 367 366 366
290 286 286 288 287 285 292 304 307 311 311 310 312 307 302 313 315 315 315 315 315 315 317 319 320 321 320 316 319 320 321 321 322 323 324 327 329 331 333 337 342 349 354 357 360 359 356 354 354 352 352 356 354 355 354 354 355 355 356 358 363 366 365 367 368 370 371 371 370 370 370 369 369 369 369 369 368 369 365 362 358 362 366 366 366 366 365
290 287 284 285 283 288 304 305 307 311 311 312 310 304 299 311 314 315 315 314 314 315 315 317 320 318 313 313 321 315 318 319 321 321 323 325 327 330 332 335 339 348 354 357 358 359 355 350 352 352 352 356 354 354 354 353 354 355 356 359 362 364 365 367 369 370 370 371 370 369 370 369 368 369 369 369 370 370 365 364 361 362 363 364 364 366 365
292 289 286 284 290 289 302 304 306 309 312 310 306 294 294 310 312 314 315 312 312 315 316 316 318 315 311 312 313 315 316 318 319 320 321 322 325 328 331 336 343 352 356 356 355 354 351 353 353 352 349 354 356 355 354 353 354 355 357 361 365 368 368 369 370 370 370 371 372 370 370 370 370 370 370 369 369 367 366 365 362 359 360 362 363 364 363
290 289 288 290 291 298 301 302 308 308 312 307 297 290 301 309 313 313 314 313 313 315 316 315 314 316 314 312 314 316 316 316 316 319 321 323 325 328 330 336 344 350 353 354 354 354 354 357 352 351 350 354 358 361 359 358 356 356 361 365 368 370 370 368 368 369 370 371 370 369 370 370 369 369 369 368 367 368 365 364 363 362 359 360 361 362 362
290 291 288 287 292 302 304 306 308 309 303 295 293 305 308 311 311 311 312 312 313 315 315 315 316 315 313 314 315 314 314 313 315 317 319 322 324 328 332 338 344 350 352 353 354 355 357 354 352 352 358 360 361 364 361 357 360 358 363 367 368 370 370 368 367 368 369 371 371 369 370 371 370 369 370 370 369 369 366 366 366 365 365 362 359 359 361
292 292 290 287 282 298 307 307 304 306 298 301 306 308 310 312 312 310 310 311 312 313 313 313 314 314 313 314 313 313 313 312 313 315 317 319 321 323 328 337 345 349 351 352 352 354 354 352 354 356 356 363 365 363 360 361 360 363 363 365 368 370 370 367 368 369 370 371 370 368 369 370 369 369 370 369 370 371 369 368 366 365 365 363 361 360 360
286 287 286 287 295 303 308 307 300 307 309 310 312 309 309 310 310 310 309 309 310 312 312 312 313 313 313 313 313 313 313 312 313 315 317 318 320 323 328 337 346 351 353 353 353 355 354 356 358 357 359 364 364 361 361 366 363 364 367 367 370 369 368 367 367 368 368 369 369 368 370 371 370 370 369 369 369 370 369 366 365 364 365 365 363 360 359
292 290 294 300 302 306 307 309 309 310 310 311 311 310 309 309 310 311 309 309 310 311 311 312 312 311 312 312 313 312 311 312 313 314 315 317 318 321 329 336 344 351 355 355 356 355 355 359 360 361 360 363 363 362 364 368 369 365 367 368 368 368 366 366 367 367 367 369 368 368 369 370 370 368 369 369 367 369 369 367 366 365 365 365 363 361 360
300 301 301 301 302 303 306 308 311 311 311 311 311 310 308 310 312 311 309 311 312 312 313 312 312 312 312 312 313 312 312 313 314 316 316 317 320 324 330 336 342 348 355 356 357 357 357 360 360 361 363 361 362 363 365 368 368 368 368 369 369 368 366 366 366 365 366 367 367 366 368 370 370 369 369 367 367 368 367 366 365 365 364 363 363 363 360
295 289 301 300 300 304 305 306 309 311 313 311 311 310 309 309 311 312 312 313 312 312 312 312 312 313 313 312 313 313 313 313 315 315 315 317 320 325 328 333 339 346 355 354 354 356 354 358 360 359 360 361 365 367 368 366 365 369 370 370 367 368 366 365 367 366 366 365 365 366 369 369 369 370 369 368 368 365 366 364 364 363 363 361 361 361 360
293 292 299 302 304 306 306 306 306 307 310 309 309 310 311 311 312 312 312 312 312 313 311 312 312 313 314 313 312 312 312 314 315 315 316 317 321 327 329 333 337 343 353 355 355 356 356 359 360 359 360 361 364 365 366 365 365 370 369 369 367 367 365 364 364 364 365 364 364 364 366 367 366 367 368 369 365 365 364 364 361 359 360 359 359 358 358
295 299 302 302 302 303 305 307 308 308 309 308 308 309 309 310 310 311 312 313 311 311 312 312 312 312 314 314 314 313 313 314 315 315 316 319 324 326 327 332 336 338 348 351 354 355 357 361 361 360 361 361 364 365 367 367 369 368 367 367 368 368 366 365 365 366 365 365 365 364 364 367 367 369 367 367 369 366 368 368 365 362 362 360 360 361 361
291 294 297 300 294 296 301 304 309 310 310 309 308 308 309 309 310 311 311 312 313 312 311 313 312 312 313 315 314 313 314 315 315 316 317 320 324 324 328 331 334 337 345 350 352 354 356 358 361 360 362 363 366 364 366 367 368 369 368 367 367 366 365 365 365 363 364 362 364 363 364 363 365 359 317 308 334 373 369 351 341 337 341 368 371 364 362
289 296 299 301 299 298 301 304 307 308 309 308 307 307 309 310 310 311 311 311 311 311 311 313 312 312 313 314 315 314 315 315 315 317 318 320 321 324 327 328 330 333 344 347 349 352 355 357 359 362 364 366 367 366 367 366 367 368 368 364 364 365 364 363 360 363 362 363 363 366 366 365 365 365 360 346 303 297 310 324 331 306 298 301 306 314 362
294 297 299 300 300 299 304 306 309 308 309 308 307 309 310 310 311 311 311 312 310 310 311 312 314 312 313 314 314 315 316 317 317 316 317 319 322 325 327 326 328 333 342 343 344 347 352 354 359 361 359 362 364 365 368 368 368 368 368 364 362 362 363 362 368 369 364 365 364 364 365 366 366 365 363 359 351 310 298 303 301 297 298 298 300 305 305
293 301 303 303 303 303 307 309 310 309 309 309 308 310 310 310 311 311 311 311 312 311 311 311 314 314 313 313 315 316 316 317 319 319 317 319 320 324 324 325 326 334 337 339 339 341 346 351 352 354 356 359 363 365 368 368 368 366 366 366 363 363 365 364 362 365 362 365 365 363 363 366 366 368 364 361 358 353 335 300 295 297 298 297 297 300 304
301 302 304 306 306 304 307 310 310 309 309 310 311 311 312 312 311 311 311 312 312 312 312 312 313 314 315 314 314 315 318 319 319 318 317 318 317 321 322 323 326 335 334 336 337 338 340 346 350 350 351 353 358 362 365 370 370 367 367 366 366 364 365 365 366 365 366 367 367 366 365 367 368 368 366 365 362 360 353 351 345 322 303 297 297 299 296
303 305 304 303 302 302 306 305 304 309 310 311 311 311 312 312 313 312 312 312 313 313 313 312 314 315 315 314 313 315 316 317 319 317 317 318 318 321 322 324 326 332 333 332 333 335 337 342 345 344 345 348 354 359 363 366 368 371 367 367 364 364 367 367 368 367 367 368 367 369 367 367 367 365 365 365 365 361 358 358 357 357 354 340 309 296 321
303 304 303 299 298 301 304 308 310 310 310 311 311 311 312 313 312 311 310 310 311 313 314 315 314 315 313 313 313 315 317 317 316 315 315 316 319 321 322 323 325 330 330 331 331 332 334 335 340 341 343 348 353 354 356 361 363 365 369 367 366 367 368 367 367 367 367 369 370 369 370 370 370 365 363 363 361 362 358 358 358 359 359 348 337 308 299
302 303 305 304 305 306 306 308 308 308 310 311 312 312 311 311 311 310 310 310 310 312 312 313 315 315 314 314 315 316 318 315 315 315 315 318 320 322 321 323 325 327 328 329 330 330 330 331 333 335 336 341 349 353 356 358 360 360 361 361 363 364 367 367 367 366 365 368 370 369 358 363 365 366 364 365 361 362 362 362 361 357 344 337 337 331 324
302 303 304 304 305 305 304 303 304 306 308 310 311 310 310 309 308 309 310 311 311 309 311 312 313 314 315 315 317 316 314 314 316 317 316 319 321 322 322 322 324 325 325 328 328 328 328 329 331 332 334 336 343 349 352 355 357 360 361 360 358 356 360 366 367 366 368 368 365 354 365 365 367 367 363 364 364 360 358 360 351 346 346 344 338 344 343
301 302 303 303 304 304 303 302 303 304 306 308 309 310 311 311 309 309 310 311 312 311 311 311 312 312 314 317 316 317 317 316 317 319 319 322 323 323 322 321 321 322 322 325 326 327 326 327 328 330 332 336 341 345 348 349 351 353 355 358 358 341 333 339 348 365 363 361 361 363 362 362 362 363 359 359 360 359 356 352 351 351 348 349 349 348 341
301 301 302 301 302 302 303 303 302 303 304 306 306 307 308 309 309 309 309 309 310 310 310 310 310 313 315 316 317 318 319 318 319 320 319 321 321 322 322 321 322 325 325 325 325 325 325 325 324 327 332 337 340 341 343 346 347 349 350 352 352 354 344 338 352 352 355 358 358 358 357 357 357 358 356 356 357 359 357 357 353 350 349 344 346 345 339
299 298 298 299 300 300 301 301 301 302 304 304 305 307 308 309 310 311 311 312 311 310 310 310 311 314 315 315 317 317 318 319 319 320 318 318 319 321 321 321 323 325 325 324 324 325 325 324 325 326 329 335 338 338 338 341 344 344 345 346 348 347 347 338 340 350 349 350 350 353 358 356 354 353 351 352 356 354 355 355 351 346 345 343 339 337 335
299 299 300 301 301 299 299 300 302 302 303 304 305 306 307 308 309 310 310 312 312 313 313 313 313 315 315 315 316 316 318 317 315 314 315 316 317 319 321 323 324 323 324 322 321 322 324 326 326 327 327 334 336 336 334 335 341 342 342 343 341 340 341 343 343 347 346 344 345 346 348 348 347 346 346 346 348 351 350 347 342 340 338 335 333 330 314
302 302 303 303 304 304 304 303 302 302 302 302 304 305 306 306 308 309 310 311 311 311 313 313 314 315 316 316 315 315 315 315 314 314 314 314 315 317 320 321 321 321 321 320 319 320 323 325 325 326 330 334 335 335 333 332 338 340 340 339 337 336 336 337 338 340 341 341 341 340 339 338 336 338 339 340 339 337 337 335 334 332 329 326 326 327 324
302 302 302 303 303 304 303 304 304 304 303 303 303 304 304 305 307 307 308 310 312 313 314 314 314 314 314 314 313 314 314 315 315 314 314 313 315 318 318 317 317 316 316 317 318 320 321 322 323 324 329 332 333 334 332 332 338 339 339 338 336 334 333 332 333 334 335 335 334 333 332 332 333 333 334 333 333 331 330 329 328 327 326 325 326 327 328
304 302 302 303 303 303 303 303 304 304 304 304 304 304 304 305 305 307 308 309 311 312 313 313 313 312 311 311 312 314 314 314 314 315 315 315 316 315 314 314 314 313 314 313 315 318 319 321 322 326 328 329 330 331 330 329 335 338 341 339 333 332 331 329 328 328 328 330 331 332 331 331 331 331 331 331 329 327 326 325 325 326 326 327 327 328 329
303 303 303 303 303 303 303 304 305 304 304 305 305 305 305 305 305 305 306 307 309 310 311 312 311 312 312 311 311 311 312 313 313 313 313 313 314 312 311 311 312 312 311 311 315 318 319 320 322 326 327 328 329 329 329 327 331 336 336 333 332 330 329 327 325 324 324 324 324 325 327 329 329 328 327 326 325 325 324 324 324 325 326 327 329 330 329
303 303 304 304 304 303 304 304 304 304 303 303 303 304 305 305 305 305 305 305 307 308 308 309 310 309 309 309 309 309 310 311 312 312 312 312 313 311 309 310 312 313 314 315 316 316 318 319 320 322 323 325 326 330 328 328 329 334 336 332 328 328 327 324 321 321 321 321 320 320 319 319 322 324 324 324 323 323 323 324 325 325 325 325 325 325 325
302 302 303 303 303 303 303 303 303 303 304 304 303 303 304 305 304 303 303 304 305 307 306 306 306 306 306 307 307 308 309 310 310 310 311 311 312 311 310 310 312 315 315 315 315 315 317 316 317 318 318 320 320 321 325 326 325 325 325 325 323 322 322 322 321 319 319 319 319 319 318 317 316 318 320 320 320 321 322 322 320 318 320 327 326 325 322
302 303 303 303 303 303 302 302 302 303 304 303 303 304 305 304 304 303 303 303 304 305 305 305 305 304 305 305 306 307 308 309 308 308 309 309 308 308 306 305 309 313 313 314 314 314 314 315 315 315 317 317 318 319 320 320 320 320 319 318 317 316 316 316 316 316 316 317 316 316 316 316 316 315 315 317 317 317 317 317 316 317 318 319 320 320 321
302 303 303 303 303 303 303 303 303 303 304 304 304 304 304 305 305 303 303 303 304 304 303 304 306 305 305 305 306 306 306 307 307 307 307 307 306 306 305 307 311 312 313 313 314 313 312 312 313 314 314 316 316 315 315 315 314 314 314 314 314 313 312 311 310 310 313 313 313 313 314 314 314 314 314 313 312 312 313 313 313 313 313 314 315 316 317
302 303 302 302 302 303 303 302 302 302 303 304 304 304 304 304 304 304 304 304 303 303 303 303 304 305 304 304 304 303 304 305 306 306 306 307 308 308 307 309 311 312 312 311 310 311 310 309 309 310 312 312 312 312 311 310 310 309 309 310 310 310 309 308 307 306 307 308 309 309 309 310 310 310 311 311 312 312 312 312 311 311 311 311 311 312 312
302 302 303 302 302 303 303 303 303 303 302 302 304 304 304 304 304 304 303 303 303 303 302 302 302 303 303 303 302 302 302 303 303 304 304 305 306 308 310 309 310 311 310 310 309 308 308 308 308 308 310 309 310 309 308 307 306 306 306 306 306 307 306 305 304 304 303 303 303 304 305 306 306 306 307 309 310 310 311 310 310 310 309 309 309 310 310
303 303 303 303 303 303 302 302 302 302 302 303 303 303 303 303 304 305 304 304 303 303 303 302 302 302 303 303 303 303 304 304 303 303 302 301 302 303 308 310 309 309 309 309 308 307 307 306 307 308 308 307 307 306 305 304 304 304 303 303 304 304 303 303 303 303 302 302 302 302 302 301 302 302 303 304 305 306 306 307 307 308 308 306 305 305 305
303 302 303 302 302 302 303 303 303 303 303 302 301 301 302 303 304 305 304 304 303 303 303 303 303 302 303 303 304 304 304 304 304 305 305 305 303 304 307 308 309 309 308 308 307 306 305 307 306 305 305 306 306 304 303 303 303 303 303 302 301 301 301 301 301 301 301 301 301 301 300 300 300 300 300 300 301 301 302 303 303 303 303 303 303 303 304
302 303 303 303 306 305 303 304 303 303 302 302 300 299 301 302 303 303 304 304 304 304 304 304 304 303 303 303 303 303 303 302 303 304 304 305 306 307 308 308 308 308 307 305 305 305 305 305 306 305 305 306 305 303 303 302 301 301 302 301 301 300 300 299 299 299 299 299 300 300 300 300 299 299 299 299 299 299 300 299 299 300 301 301 301 301 301
302 301 302 303 304 305 304 303 302 301 301 301 300 301 301 302 303 304 304 304 304 304 304 304 304 304 304 303 303 304 304 303 300 301 304 304 305 305 306 305 306 308 307 307 306 306 306 306 305 305 305 305 304 303 302 302 302 302 301 301 301 301 301 300 299 299 299 299 300 299 298 298 298 299 299 298 298 299 299 299 298 298 299 298 298 298 299
301 302 302 302 302 304 303 302 301 301 301 302 303 301 302 301 301 302 303 303 303 303 302 302 303 304 304 304 304 303 305 305 303 301 305 305 304 304 305 306 307 307 306 304 303 303 305 304 304 304 304 305 302 302 302 302 302 302 301 302 301 300 300 300 300 300 299 299 299 299 299 299 299 298 298 299 299 299 299 299 299 299 298 298 298 298 298
301 301 301 301 301 301 301 301 300 300 301 302 301 301 302 301 300 300 301 301 301 302 301 301 301 302 303 303 303 304 304 305 305 305 305 305 304 304 305 305 305 306 306 304 304 303 304 305 304 304 303 301 301 301 301 301 301 301 301 301 301 301 301 301 300 300 300 299 298 298 298 298 298 299 299 299 298 298 298 298 299 298 298 299 299 298 298
301 300 300 302 301 302 302 302 301 302 302 302 302 302 301 301 301 301 301 301 301 301 300 301 301 302 302 302 303 303 303 304 305 305 304 304 305 305 305 305 304 305 304 303 303 301 301 301 301 302 301 300 300 300 300 299 299 299 299 299 299 299 299 300 300 299 299 300 300 300 300 299 299 298 298 298 298 298 298 299 299 300 299 299 299 298 298
301 301 301 301 302 301 302 302 303 303 302 302 301 301 300 300 300 300 301 301 301 300 300 300 300 302 302 302 302 302 303 303 304 304 304 304 304 303 304 304 303 304 303 302 302 302 301 301 302 302 301 300 299 299 301 301 299 298 299 299 299 298 299 298 299 298 298 298 298 298 299 300 300 300 300 300 300 300 300 300 299 299 300 300 300 300 300
Wind_Speed
19 19 17 13 14 14 16 16 15 18 15 21 16 17 17 18 15 15 16 20 15 12 7 16 15 6 8 8 8 8 6 5 5 5 5 3 4 9 8 5 7 9 11 10 14 16 17 18 19 19 17 17 16 16 17 18 19 20 18 18 19 20 20 19 19 19 18 18 17 17 17 16 16 16 16 16 15 15 15 15 15 16 16 16 15 15 14
18 19 18 17 18 16 15 17 15 13 14 13 16 17 21 25 19 16 15 9 12 13 15 7 15 7 8 8 8 7 7 8 6 4 2 6 9 7 3 7 8 9 8 11 12 14 15 16 17 18 16 16 18 19 19 20 19 18 17 18 18 19 20 18 17 17 17 16 16 17 17 17 16 16 16 16 17 17 16 16 14 14 14 14 16 15 15
16 17 18 20 20 17 17 16 17 15 15 15 15 14 15 20 24 21 19 15 16 13 12 11 7 9 8 8 9 9 9 7 9 9 7 8 8 4 5 5 9 4 4 8 11 13 15 16 16 16 15 16 18 19 19 19 19 18 19 17 18 19 18 17 16 17 16 16 16 16 16 17 17 16 16 15 15 14 14 15 14 13 13 16 15 15 16
13 14 18 20 20 19 18 18 18 18 17 18 16 14 13 16 19 20 19 17 16 14 15 12 10 9 10 9 8 8 8 11 12 12 12 12 9 7 4 6 8 7 7 8 10 12 15 17 17 16 14 16 17 19 19 20 20 19 19 19 19 17 17 16 16 17 17 17 17 17 16 16 17 16 16 15 13 14 15 16 13 14 15 15 14 15 15
13 12 13 14 17 18 18 18 18 18 19 18 17 16 15 16 17 17 17 16 14 9 8 8 10 10 11 11 10 11 12 11 12 13 13 11 8 6 8 9 9 9 8 11 12 9 13 14 16 18 18 18 17 18 18 18 18 19 19 20 18 17 17 17 17 17 16 17 17 17 17 17 16 15 15 15 15 16 17 16 15 14 14 15 15 14 14
12 14 13 12 11 15 15 11 15 18 21 21 22 19 18 17 19 15 14 14 4 4 8 11 12 14 13 13 13 11 10 12 12 11 10 10 10 11 11 11 11 10 7 9 11 12 10 13 17 17 17 18 18 18 17 16 17 16 17 18 18 18 17 17 17 17 17 17 17 17 17 16 16 16 17 16 17 16 15 14 14 15 16 15 14 14 14
11 12 12 12 15 14 10 14 17 18 19 21 22 22 23 18 11 12 15 13 11 6 7 9 11 13 14 15 17 16 13 12 10 10 10 11 12 12 10 11 12 11 11 12 14 13 13 14 15 16 17 18 17 17 17 19 19 17 17 17 16 17 17 17 17 18 19 18 17 17 17 17 16 17 17 16 17 16 16 16 15 14 15 15 14 14 15
10 11 11 12 13 10 13 9 8 10 13 12 15 7 4 4 9 6 9 10 8 5 6 8 9 11 13 13 14 8 11 13 11 12 12 14 14 14 13 14 14 14 13 13 14 13 12 12 14 15 17 18 18 19 19 19 18 18 17 16 17 18 18 18 19 19 19 19 18 17 17 17 17 17 17 16 16 14 13 15 14 13 13 14 15 15 15
11 10 11 14 10 13 12 10 9 5 8 10 12 12 9 1 3 6 2 2 3 4 7 8 10 11 11 11 7 13 14 17 15 15 14 15 15 15 15 16 17 17 16 15 15 14 13 13 14 15 17 18 19 19 20 19 19 20 19 18 18 19 19 20 20 20 19 19 18 18 18 18 18 17 16 16 15 13 14 14 15 14 14 14 13 14 15
9 11 11 11 11 13 9 4 4 5 5 6 9 5 9 7 7 5 4 3 1 5 7 7 10 12 10 9 5 14 19 20 19 19 17 17 17 17 17 17 18 19 17 16 15 14 14 13 14 15 16 18 19 19 20 20 21 21 21 20 19 19 20 21 20 19 19 19 18 18 18 18 18 17 16 15 15 14 15 14 15 15 14 13 13 14 15
9 11 12 10 10 11 5 2 4 4 7 9 2 1 8 2 5 1 5 2 3 5 7 9 9 7 8 9 5 16 20 21 20 19 20 18 19 18 18 18 20 21 18 16 17 17 15 14 13 15 17 19 20 19 20 21 21 21 21 20 20 21 21 20 19 19 18 18 18 19 18 18 17 17 17 15 14 14 14 14 14 13 13 13 13 13 15
10 10 12 12 9 7 6 2 4 7 7 6 5 9 4 5 3 0 3 1 3 4 6 9 7 5 6 10 13 17 19 19 19 19 20 21 21 21 20 20 20 21 19 17 17 17 15 13 13 15 17 18 19 19 20 20 21 21 21 20 20 19 18 18 17 17 17 18 18 18 18 17 16 15 14 14 15 15 14 13 13 13 13 12 14 13 14
11 13 12 12 11 12 11 5 1 3 5 5 6 10 3 0 2 5 3 1 2 2 3 5 5 5 7 10 14 16 18 20 21 20 19 19 20 20 21 20 22 20 18 16 16 16 12 11 12 14 16 17 16 15 17 17 19 21 19 16 17 17 17 18 18 18 17 18 19 18 17 16 15 15 14 14 14 14 14 13 12 12 13 12 13 13 13
11 11 12 13 12 3 8 3 4 3 5 8 6 4 5 6 5 5 5 4 4 5 4 5 5 6 8 10 12 15 17 18 19 19 20 22 23 22 20 21 20 19 18 16 16 16 12 12 12 14 13 13 14 14 15 18 18 18 15 16 17 17 18 18 18 18 18 17 17 15 15 15 14 14 13 13 13 13 12 11 12 12 11 11 12 12 12
9 10 12 10 12 3 10 9 10 2 8 2 2 4 5 4 5 4 4 5 6 7 5 7 6 8 10 11 13 15 16 17 19 20 21 22 22 22 23 21 22 20 17 16 16 14 12 12 11 13 15 13 13 14 16 17 16 15 16 17 18 17 17 18 17 18 17 18 16 14 14 15 15 14 13 13 12 12 12 12 12 13 12 12 12 12 11
8 9 12 7 5 5 7 7 5 4 3 3 1 3 3 6 5 5 4 5 6 8 8 9 9 11 12 13 15 15 16 18 19 19 20 21 21 22 22 20 20 20 17 15 15 13 11 10 9 11 13 11 12 14 17 14 13 13 14 16 16 17 16 17 17 16 16 17 16 14 15 14 15 14 14 13 12 11 12 11 11 12 11 12 11 12 12
5 7 9 8 10 10 7 4 4 2 3 2 3 4 3 3 5 5 5 5 7 10 10 10 10 10 11 13 14 15 16 17 18 19 20 20 20 19 19 21 20 19 17 16 14 12 11 9 9 10 10 11 12 14 13 12 12 13 15 16 16 16 17 16 16 16 15 15 15 15 15 15 15 14 14 14 12 12 12 12 11 11 12 11 12 12 12
11 16 19 18 16 11 10 5 2 1 1 1 1 3 5 5 4 4 6 10 7 7 10 10 10 10 12 14 14 15 15 16 17 17 18 19 19 19 20 21 22 21 19 15 11 12 11 9 9 9 9 12 13 12 12 12 13 13 14 15 15 15 15 15 16 16 16 15 16 15 15 14 14 13 14 14 13 12 13 12 12 12 12 11 12 11 11
10 9 4 6 12 12 10 8 3 3 1 2 1 2 3 3 4 6 6 7 12 10 8 9 11 13 13 14 14 14 13 14 16 18 19 19 18 16 19 20 21 18 16 11 9 8 8 9 9 9 10 11 11 10 12 13 14 13 14 15 14 14 14 15 15 14 16 14 14 14 14 13 12 12 12 13 13 13 13 13 13 12 12 12 12 12 12
13 14 15 15 14 11 11 10 8 6 4 3 3 4 6 7 7 6 7 7 10 10 9 9 12 12 12 13 14 13 13 14 15 17 18 20 19 19 20 18 19 18 14 10 5 6 6 5 6 8 9 11 11 13 13 15 14 14 14 16 15 14 15 14 13 14 14 14 14 13 14 13 13 13 13 13 13 13 14 13 13 13 12 12 13 12 12
13 18 19 17 17 14 12 11 10 6 4 4 4 5 7 9 10 10 10 8 8 11 10 9 10 12 11 11 13 14 14 14 15 17 17 17 15 17 18 18 18 15 13 11 8 3 2 3 6 8 10 11 11 13 13 14 13 15 14 14 13 14 13 12 12 11 12 13 13 12 13 12 11 11 11 13 12 11 12 12 12 12 12 11 12 11 12
13 12 7 11 8 7 7 8 6 5 4 7 9 9 10 11 12 12 11 11 9 10 12 12 8 10 11 11 12 14 13 14 16 17 17 15 16 17 16 15 16 15 13 11 10 11 5 2 3 7 8 9 9 11 12 12 12 14 14 13 13 13 12 11 12 12 11 12 12 11 12 12 12 6 13 14 5 6 10 13 11 7 3 7 6 10 11
13 15 17 16 13 15 13 12 8 7 6 8 10 11 11 12 12 11 12 12 10 9 11 10 10 9 10 12 12 13 12 14 15 17 18 17 17 16 17 18 19 17 12 12 13 13 12 5 2 2 2 1 5 9 10 11 12 13 13 12 11 11 12 11 12 11 11 11 11 10 11 11 11 9 7 7 13 14 11 6 9 14 13 11 11 11 3
18 21 20 18 14 15 13 14 11 9 8 9 11 11 11 12 12 12 11 11 10 9 9 11 9 8 10 11 11 12 13 13 14 17 17 16 14 13 13 14 17 17 13 14 14 13 10 10 7 6 3 3 2 5 6 8 11 11 13 11 11 11 11 10 10 10 10 10 11 11 10 11 11 10 10 8 5 12 14 10 11 12 12 12 11 9 10
13 15 14 13 13 14 13 12 11 10 9 9 10 11 11 11 11 10 11 11 10 10 9 10 10 7 8 11 11 10 11 13 14 15 18 16 15 13 12 15 17 14 12 11 11 11 11 9 10 9 9 8 7 3 2 7 9 11 11 11 10 10 10 10 11 11 10 10 10 11 11 11 11 11 11 11 10 6 6 12 12 12 11 11 10 9 10
14 14 12 11 11 11 11 10 11 11 11 11 11 10 10 10 10 10 11 10 10 10 9 10 10 8 7 9 10 12 11 11 14 15 14 14 15 14 15 17 17 12 13 11 12 13 14 11 8 9 10 10 8 5 2 1 7 10 9 10 9 8 9 10 11 11 10 10 10 10 10 10 11 11 11 11 11 10 8 6 5 8 12 12 10 9 10
11 10 11 7 5 7 5 5 6 9 9 9 9 11 11 11 11 10 10 9 9 9 9 9 10 9 7 8 10 11 11 11 12 13 13 14 15 14 14 14 15 13 12 12 12 14 16 13 10 10 10 9 8 8 6 4 2 7 10 9 9 9 11 10 9 10 9 9 10 10 10 10 10 12 11 9 9 10 11 10 9 8 7 4 7 11 5
11 13 12 10 10 11 11 10 8 8 9 8 8 10 10 9 8 9 10 10 8 8 8 7 7 7 7 8 9 9 10 10 11 13 14 14 14 13 13 16 16 12 10 11 12 13 12 12 11 12 13 11 8 9 10 9 5 4 4 8 9 7 7 7 7 8 8 9 9 9 9 10 9 10 9 9 10 10 11 11 10 10 9 5 4 6 10
12 12 12 11 11 11 11 11 13 13 13 11 6 5 7 8 9 9 8 8 7 7 6 6 5 5 7 8 9 9 9 10 11 12 12 12 13 14 15 15 14 11 11 15 15 15 14 14 12 14 14 15 10 9 8 8 8 7 8 7 4 2 6 8 8 8 8 7 7 8 7 7 8 8 8 9 8 9 9 11 10 8 8 7 6 5 5
12 11 11 11 12 14 14 14 13 15 14 12 11 7 4 5 7 7 8 6 5 5 4 5 5 6 6 8 7 7 8 9 9 10 11 12 13 13 14 15 13 11 12 15 16 14 13 13 13 13 13 15 14 9 9 9 9 8 7 9 9 8 5 3 9 7 8 8 5 6 6 5 5 7 7 7 8 8 9 6 8 9 9 8 7 7 7
14 13 14 14 14 15 15 14 13 14 14 14 13 13 11 7 4 5 5 5 5 5 4 4 5 6 7 6 6 7 7 8 8 8 8 10 11 12 12 13 12 13 14 13 13 13 13 13 13 13 14 14 14 11 10 9 8 9 9 8 9 13 15 15 11 3 6 4 4 6 7 7 7 8 9 10 10 8 5 8 8 8 8 8 8 8 6
15 15 16 16 15 15 15 13 14 15 15 14 14 13 12 13 13 9 4 5 4 5 4 4 4 5 6 6 7 6 6 6 7 7 7 8 11 10 11 12 12 10 10 11 12 12 12 13 14 14 14 14 14 14 13 10 10 10 8 8 8 7 11 13 8 9 7 5 2 2 4 6 7 8 9 8 7 6 7 9 9 7 7 7 7 6 7
15 14 15 17 17 16 15 15 15 15 15 16 14 12 11 11 11 10 11 9 5 5 4 5 4 3 5 6 6 5 6 5 5 6 7 7 10 12 12 11 11 10 10 10 11 10 11 12 12 13 14 13 14 15 15 12 10 10 10 10 8 9 9 10 10 9 9 7 7 5 3 4 5 6 7 7 3 6 6 7 8 7 7 6 6 6 6
13 10 11 12 12 12 13 14 13 13 13 13 13 13 14 13 11 11 11 9 8 8 6 6 5 5 4 5 5 5 5 5 6 6 7 7 8 11 13 11 10 10 9 11 12 10 9 9 11 12 13 13 15 13 14 14 10 9 9 8 9 9 9 9 9 8 7 7 7 7 7 6 6 6 6 6 5 4 6 6 7 7 7 7 7 6 6
12 10 10 11 11 13 13 12 12 12 12 13 13 14 13 13 13 12 12 10 8 7 6 6 6 6 5 4 5 4 5 6 6 6 7 7 8 9 10 10 10 9 9 9 12 11 13 13 13 15 15 14 14 13 13 14 9 9 9 10 9 9 9 8 9 8 8 7 6 6 6 7 7 7 6 6 6 7 7 7 7 8 8 8 8 6 5
12 11 10 10 11 12 13 13 13 13 12 11 12 12 13 13 15 14 14 12 9 8 7 6 4 4 5 6 5 6 6 7 7 7 7 8 8 7 9 10 11 10 11 10 13 13 13 13 20 23 14 12 13 14 14 14 10 10 9 9 9 8 8 9 9 9 9 8 8 8 8 8 8 7 7 7 7 7 8 8 8 8 8 8 9 7 7
13 12 11 11 10 12 13 12 12 12 11 11 11 12 13 13 13 12 12 12 11 10 9 7 5 4 4 4 5 6 7 7 7 7 7 6 6 7 8 9 10 11 12 12 14 14 12 13 20 21 13 10 11 12 14 20 10 8 7 9 10 9 9 8 8 8 9 7 6 7 8 7 7 7 7 7 7 7 7 8 9 9 8 9 9 8 8
12 12 12 11 10 10 10 10 11 12 13 13 12 12 13 12 12 12 12 13 12 11 9 7 6 6 5 5 7 8 9 9 9 8 8 8 8 8 9 10 10 10 10 11 12 12 12 15 18 13 12 11 10 11 13 17 16 10 9 10 10 10 10 9 9 9 9 9 10 10 9 7 7 7 7 7 7 7 8 8 9 9 9 8 7 6 7
12 11 11 11 10 10 10 11 11 11 12 13 12 12 12 13 13 13 12 13 13 12 12 11 10 9 9 9 9 9 10 10 10 9 9 9 8 9 9 8 7 9 9 9 10 10 12 13 11 10 9 10 12 11 13 15 16 10 10 10 11 10 10 10 9 9 10 10 9 9 10 10 9 8 8 7 8 8 8 9 9 8 9 9 9 8 8
10 10 12 11 11 10 10 10 10 11 11 11 11 12 12 13 12 12 12 13 13 13 12 11 11 10 10 11 11 11 11 11 10 10 9 9 9 9 7 8 10 9 11 13 10 10 13 17 12 9 8 9 11 10 9 14 13 10 10 10 9 10 10 10 11 11 10 10 10 10 9 9 9 9 8 8 9 8 8 8 8 7 6 5 7 8 9
10 10 10 10 10 10 9 9 9 10 10 11 11 11 12 12 12 12 12 12 12 13 13 12 12 12 12 11 11 12 12 11 11 12 11 11 11 10 11 10 10 9 10 10 11 10 12 12 11 10 9 9 9 11 8 13 10 9 9 9 9 9 9 11 12 11 10 9 10 10 9 8 8 9 9 8 8 8 8 8 7 7 7 7 8 7 8
9 9 10 10 10 10 10 10 9 9 10 10 12 12 12 12 12 12 12 11 11 11 12 13 16 14 13 13 12 12 12 11 11 12 14 14 13 11 11 10 11 10 13 12 10 11 11 11 11 10 9 8 9 16 16 11 11 10 10 10 10 10 11 11 11 11 10 9 9 9 9 9 9 9 8 8 8 7 8 8 9 9 9 9 9 8 9
9 9 9 9 9 10 10 10 10 10 10 10 10 10 11 11 11 12 12 12 12 12 12 12 14 15 14 13 13 13 12 11 11 11 12 13 14 14 12 11 11 11 14 10 9 8 9 9 10 11 14 11 11 16 17 12 11 11 11 11 11 11 11 11 11 10 10 10 10 10 10 10 10 9 9 9 9 8 9 9 10 10 9 9 9 9 10
9 7 8 8 7 8 8 8 9 10 10 10 9 9 10 10 11 11 12 12 13 12 12 13 13 13 13 13 13 12 12 11 10 10 10 11 13 15 14 11 10 12 16 10 10 10 10 9 9 15 20 19 19 18 12 11 11 11 10 11 11 11 11 11 11 10 10 11 11 10 10 10 10 10 10 9 9 9 10 10 9 9 10 9 9 9 9
7 7 8 7 7 7 7 8 9 9 9 9 9 9 9 10 10 10 11 12 13 13 13 12 12 12 11 11 11 11 10 10 11 11 11 12 12 12 12 14 13 11 12 14 10 11 11 11 16 21 19 22 20 18 11 10 10 10 11 11 11 11 11 12 13 12 13 13 13 12 11 11 11 10 10 11 11 10 10 10 10 10 10 10 10 10 10
8 8 7 7 7 7 6 7 7 7 7 9 10 10 10 10 10 9 9 10 11 11 12 13 12 13 12 11 11 11 11 11 12 12 11 11 11 10 13 15 12 14 17 16 10 10 11 21 22 21 22 23 21 15 12 10 10 10 10 11 12 13 12 12 13 13 14 14 14 13 13 12 11 12 12 11 11 11 11 12 11 11 11 10 10 10 10
7 7 7 6 4 5 6 5 6 7 8 8 9 9 9 8 8 8 9 10 10 10 10 11 12 12 12 12 12 11 11 10 10 11 10 10 11 13 14 18 19 20 16 13 13 13 13 15 18 23 24 24 23 16 14 13 13 12 11 11 11 12 13 13 13 13 13 13 13 13 14 13 10 11 11 11 12 12 12 12 11 11 11 11 11 11 11
6 7 6 6 6 6 5 4 5 7 7 6 7 7 8 8 8 7 7 7 8 9 10 10 10 11 11 12 11 11 10 10 11 12 11 10 10 11 12 12 14 17 17 17 19 20 25 23 23 22 23 21 17 16 17 15 15 15 13 12 12 11 11 12 12 13 12 12 12 11 11 12 13 12 12 12 11 11 11 11 12 12 11 11 11 10 11
6 6 6 4 4 5 5 6 7 7 6 6 7 6 6 7 7 7 7 8 9 8 9 10 10 10 10 11 11 10 11 10 11 10 11 11 11 11 11 13 17 17 13 12 13 13 20 24 23 23 21 17 13 15 15 15 15 15 14 13 13 13 12 12 11 10 11 12 11 12 12 12 11 13 13 13 11 11 12 12 11 10 9 10 10 11 11
5 5 5 5 5 5 5 4 5 5 5 6 6 6 7 6 6 7 6 7 7 7 7 8 8 9 9 9 9 10 11 11 11 11 12 12 12 12 11 11 12 16 16 13 14 13 16 22 21 21 16 13 13 13 12 13 13 13 13 15 14 12 13 13 13 14 12 13 13 14 13 13 13 14 12 10 11 11 11 11 10 13 17 12 10 9 9
3 3 3 4 4 4 5 5 5 5 5 6 6 6 6 6 6 6 6 7 7 7 7 7 8 8 8 8 8 9 10 11 11 12 10 10 11 14 15 12 13 13 12 12 12 13 13 13 13 13 13 13 13 13 12 13 12 13 13 13 13 12 12 12 12 12 12 11 10 10 11 12 13 13 12 12 12 12 11 11 11 10 9 9 9 9 8
2 3 4 3 3 4 4 4 4 5 5 6 6 6 5 5 4 5 6 8 7 6 6 6 8 8 8 8 8 9 9 11 10 10 10 11 11 10 12 15 12 12 12 11 10 11 11 12 13 16 15 12 11 12 14 16 13 12 12 13 12 12 12 12 11 11 11 11 11 11 11 10 9 10 10 10 10 10 10 10 10 9 9 8 7 7 6
Wind_Direction
255 262 265 282 294 290 284 285 286 302 260 213 230 237 245 247 223 220 206 222 240 246 262 122 62 23 20 23 10 18 19 12 32 35 359 319 183 170 178 179 187 199 197 189 182 189 192 194 196 196 194 194 195 194 194 194 197 196 189 188 186 185 186 188 185 185 184 185 187 187 189 191 197 196 195 197 194 191 191 198 199 201 203 194 194 199 197
264 261 264 275 269 266 267 255 264 271 291 246 233 248 243 233 232 243 243 258 273 253 249 229 53 358 354 354 326 343 9 3 354 246 5 339 334 356 43 158 180 184 203 195 191 192 194 199 199 200 195 193 194 195 195 194 196 194 186 188 188 186 188 189 183 182 181 182 183 185 187 189 194 196 197 197 196 196 193 199 199 201 203 201 195 198 200
258 261 273 270 257 254 260 264 258 253 242 240 250 260 254 244 239 235 240 258 263 264 284 273 18 348 324 310 317 329 334 329 356 356 347 325 337 342 300 353 336 6 215 209 202 196 198 202 202 202 199 196 196 197 195 195 195 193 189 187 189 188 188 187 181 179 180 181 180 183 185 187 189 193 196 197 197 193 194 195 200 198 203 204 204 199 201
256 260 264 257 249 247 248 254 253 248 245 242 248 246 241 237 228 235 241 242 239 260 273 289 331 311 308 311 329 329 341 342 330 315 308 302 304 288 308 337 317 309 292 262 211 213 208 205 205 204 202 198 197 199 195 197 194 193 190 186 189 188 185 184 182 181 181 180 180 181 181 184 185 189 193 197 198 193 195 194 197 200 201 204 206 205 203
254 262 274 259 248 249 243 230 239 248 247 249 248 249 246 243 243 235 232 232 238 277 351 344 305 324 327 336 335 342 332 327 317 306 305 300 290 341 342 314 319 317 325 325 313 243 219 217 211 208 203 201 199 200 198 195 193 193 191 187 186 185 185 183 182 181 181 181 180 179 180 181 182 185 189 193 196 196 197 195 195 200 200 202 205 209 208
274 264 254 269 256 243 242 244 243 238 238 233 236 238 241 234 226 237 241 244 234 358 333 340 335 330 336 332 328 326 322 307 313 337 342 348 341 339 333 323 313 323 320 286 274 286 269 224 220 216 208 205 201 199 198 191 194 195 191 188 185 185 184 183 181 180 181 181 181 180 178 179 179 184 187 191 195 196 195 195 196 199 202 202 205 207 212
260 263 261 253 248 244 245 252 245 234 228 227 233 239 242 255 258 251 247 256 262 265 320 326 326 322 327 327 320 317 330 7 5 351 344 342 334 329 315 306 309 313 302 285 276 265 265 264 237 215 212 208 201 196 195 193 193 193 191 188 181 183 184 182 180 179 183 186 182 179 178 178 178 182 185 188 194 195 197 197 196 197 202 202 204 206 209
262 270 254 249 244 262 256 255 298 297 286 276 269 259 330 256 211 246 249 260 270 314 315 324 321 323 315 310 299 324 30 15 2 355 343 334 330 324 319 310 299 294 292 295 292 286 279 263 262 227 211 207 202 197 196 193 190 191 190 187 182 182 184 183 182 181 181 185 182 178 179 180 180 182 184 186 190 194 198 199 199 197 202 206 202 205 207
256 252 253 251 275 266 260 257 239 234 258 256 262 259 209 82 239 232 280 310 267 305 342 315 319 318 308 289 266 43 10 5 357 350 336 333 326 320 315 308 304 300 294 287 284 277 263 253 252 242 213 203 201 196 195 192 189 191 189 188 185 183 186 185 184 182 181 182 180 179 180 180 182 182 182 184 188 191 197 200 199 199 201 204 204 206 207
249 260 259 251 239 240 233 56 358 349 325 348 2 328 281 269 254 260 245 252 326 322 321 319 325 309 275 269 211 17 356 351 350 340 338 331 327 322 317 310 302 297 295 294 290 284 272 253 245 244 219 201 196 195 194 190 187 189 190 189 186 184 187 186 184 183 183 182 181 180 180 182 183 183 182 183 186 190 196 202 204 202 204 206 206 208 208
252 243 248 245 248 241 80 27 30 349 357 356 105 242 271 254 290 208 271 287 322 326 325 329 322 316 268 248 33 359 347 340 342 336 333 330 323 320 315 309 302 298 300 304 302 293 278 259 240 236 226 201 194 194 194 191 187 188 191 188 186 186 187 186 183 183 183 183 182 181 182 184 185 183 183 182 186 188 197 203 209 207 205 207 209 208 211
246 259 247 246 241 249 137 248 294 337 5 332 301 259 243 120 276 332 13 50 340 312 333 338 312 3 318 328 336 343 336 335 331 336 331 328 325 320 316 309 305 306 307 303 293 282 266 253 244 234 222 204 195 192 193 192 188 190 190 188 187 184 182 182 184 184 184 183 183 183 183 184 185 184 183 183 186 190 195 201 205 213 209 210 212 214 214
235 238 255 259 259 261 260 225 328 322 340 315 248 238 52 15 353 27 41 348 346 304 329 355 324 358 338 323 323 331 337 335 334 333 330 324 320 316 313 310 310 307 300 294 290 282 272 256 239 232 217 205 191 188 191 195 191 192 190 181 179 179 181 184 185 185 184 183 184 185 183 183 183 184 186 187 187 189 194 199 202 208 213 211 214 217 219
238 235 246 248 257 253 342 330 305 346 307 241 236 72 266 310 45 43 19 22 356 322 21 333 331 330 332 332 336 342 343 339 332 329 329 327 324 321 317 311 308 308 302 293 289 281 263 253 232 223 219 203 188 184 188 197 197 191 178 175 178 178 181 185 184 184 184 181 184 184 183 181 180 184 186 188 187 186 193 194 198 202 208 215 217 218 221
251 257 255 250 249 78 341 335 276 239 266 24 27 341 318 14 27 7 29 13 6 350 354 353 333 328 337 340 346 345 343 341 335 333 331 328 324 320 317 317 315 309 305 296 285 274 262 249 221 219 220 198 181 180 191 196 195 185 179 177 176 177 179 183 183 182 181 178 180 183 182 180 180 181 181 186 185 184 189 191 195 199 201 209 214 218 220
277 250 238 236 347 347 327 333 291 51 28 25 330 270 324 345 357 13 323 358 351 346 333 332 338 338 337 343 347 345 345 340 333 330 327 324 323 321 315 314 312 310 307 292 280 272 263 246 213 218 219 192 181 185 193 189 191 182 175 175 175 177 178 180 179 180 179 178 180 182 177 175 179 177 179 183 182 183 187 188 190 194 199 203 210 216 220
271 273 273 299 294 322 341 339 37 39 58 30 332 329 296 312 347 346 337 331 336 325 324 325 336 334 339 339 344 345 341 333 330 329 324 319 315 310 311 313 315 314 306 292 285 272 257 233 208 214 211 194 179 186 185 184 187 180 175 175 177 177 177 178 176 178 176 176 179 179 175 175 176 178 179 179 182 184 184 188 191 194 197 198 205 212 217
268 267 265 270 272 275 285 322 305 345 19 44 8 328 312 332 323 340 324 322 312 312 323 325 331 336 340 339 343 345 341 333 325 319 319 317 319 322 327 325 324 318 311 292 271 264 245 220 202 210 205 200 192 186 182 184 187 180 176 176 179 175 175 176 175 176 174 175 178 178 176 177 178 180 179 180 181 182 184 189 193 194 196 199 205 208 215
299 284 290 296 281 253 251 265 283 280 344 265 359 289 296 320 337 311 300 313 317 307 311 315 322 326 339 338 340 337 336 326 324 325 323 322 321 318 322 317 313 318 318 296 258 256 239 199 200 203 207 200 191 183 186 184 187 176 176 177 177 173 175 175 175 177 174 176 174 176 175 177 178 181 180 183 182 183 188 191 193 196 198 203 207 209 211
262 263 277 285 282 286 271 270 276 259 229 233 197 277 300 305 301 289 285 297 287 303 310 324 319 322 333 340 337 336 333 328 325 326 325 324 319 328 325 314 319 323 332 325 310 281 258 228 203 200 202 201 192 195 190 186 183 175 178 183 178 176 177 177 176 177 176 169 170 175 178 180 179 183 186 187 188 188 192 193 194 195 200 203 208 210 212
289 284 272 271 271 269 267 262 259 258 246 220 265 281 287 290 287 292 294 278 288 297 305 308 319 316 326 336 335 333 331 330 330 329 324 314 320 325 320 324 324 320 330 356 348 317 290 272 231 212 207 206 200 195 191 189 179 180 185 177 176 175 176 175 176 174 175 173 179 177 179 182 182 185 193 194 189 195 196 199 196 195 196 202 206 210 211
281 274 308 9 327 312 328 290 247 246 244 259 270 279 276 281 290 293 289 283 283 293 302 303 310 315 319 327 338 335 332 333 332 327 323 318 327 325 323 322 321 320 341 4 15 18 343 260 255 213 200 199 191 191 188 193 183 183 181 177 175 175 177 176 174 173 178 177 182 181 179 181 178 117 41 49 40 192 197 185 190 196 149 190 200 210 210
287 299 306 309 306 292 274 276 276 265 273 275 276 277 280 281 278 282 285 286 291 293 297 296 298 307 315 321 333 333 335 338 337 330 328 330 330 328 331 330 328 328 342 9 20 30 16 353 130 93 89 115 188 187 185 188 185 184 182 179 174 177 178 179 174 173 178 179 181 184 183 178 183 150 139 75 46 38 35 62 122 100 89 81 60 40 45
276 276 277 277 274 271 272 281 300 293 288 286 285 279 279 282 286 283 280 282 285 296 299 292 291 308 312 317 327 330 330 333 335 334 330 324 321 325 329 329 324 328 357 13 13 6 21 27 41 60 85 124 136 186 191 190 185 185 185 182 180 178 179 178 159 167 180 179 179 184 189 183 185 172 167 151 101 38 37 55 76 92 96 88 80 71 54
288 296 287 266 264 268 282 285 285 284 277 269 267 269 274 279 278 281 284 283 284 288 293 292 289 300 311 317 321 327 329 327 334 336 330 327 328 332 337 333 331 341 357 4 6 0 358 20 36 40 47 43 39 32 244 200 201 191 186 189 186 179 176 169 170 173 180 180 181 183 189 183 187 178 180 182 172 147 63 52 66 76 73 77 85 83 74
295 308 308 285 261 268 271 272 271 268 260 259 263 267 265 264 272 277 274 277 277 278 283 291 286 292 317 323 321 321 321 329 338 340 333 332 333 336 348 346 334 342 357 3 4 3 4 356 24 30 34 23 15 18 47 333 206 193 194 189 185 186 169 171 170 174 183 181 181 181 188 190 190 187 189 187 188 169 154 155 104 68 61 60 67 82 71
319 336 336 327 281 278 276 314 302 304 296 273 257 260 260 263 270 267 275 274 272 279 282 278 280 291 309 320 318 316 321 328 343 345 337 333 335 336 344 337 334 342 359 6 9 8 5 0 16 25 22 10 11 14 11 27 6 199 176 183 188 181 176 171 172 171 185 184 182 185 183 192 192 196 194 187 185 171 180 179 180 173 179 122 49 31 59
342 349 355 356 350 348 352 11 357 343 318 293 283 267 261 261 258 264 262 260 266 274 272 272 280 298 308 315 314 318 325 342 350 346 343 341 329 332 339 336 337 346 355 8 13 11 10 1 2 12 9 2 20 16 18 18 47 64 177 179 172 157 161 165 179 180 184 191 188 186 186 190 195 200 201 193 196 187 174 182 189 196 185 124 94 63 67
350 348 347 355 353 357 3 6 5 7 1 341 312 278 271 258 256 261 260 258 267 274 275 276 272 273 288 308 313 324 333 342 349 348 346 330 324 335 339 334 341 347 354 12 18 13 9 11 8 2 357 346 3 29 25 35 34 49 63 52 50 166 179 172 179 182 186 196 196 188 188 192 197 200 203 198 195 202 185 177 187 183 124 120 127 111 85
352 344 350 359 360 6 12 13 7 4 2 1 359 346 304 279 269 251 254 256 249 270 299 310 297 290 301 300 322 346 338 342 341 338 344 332 332 341 340 335 334 354 6 15 15 10 4 5 5 1 352 345 343 22 28 28 31 33 66 67 55 38 27 228 192 185 180 165 103 95 141 170 186 201 200 199 197 203 213 180 124 123 137 140 148 156 169
350 350 359 3 4 15 20 13 8 5 2 358 1 8 5 346 292 272 275 271 195 213 253 287 288 292 291 309 331 327 330 336 331 339 346 337 334 337 342 337 338 358 13 9 8 9 5 3 1 360 343 338 336 8 30 29 29 33 29 53 69 37 24 31 48 107 130 119 128 176 161 179 186 198 206 202 199 193 129 116 130 129 133 158 167 175 152
357 356 1 6 6 10 17 14 7 8 4 1 3 6 2 4 5 344 293 251 279 284 241 228 282 298 308 316 310 321 328 338 330 339 359 342 333 333 341 338 335 347 20 10 10 10 6 359 359 346 340 345 360 10 14 31 31 31 38 51 53 59 30 25 73 58 66 65 97 190 169 196 204 207 209 208 192 119 153 157 137 147 153 158 169 161 154
5 2 2 4 4 7 12 11 8 6 5 4 1 356 360 3 1 9 10 354 315 262 257 257 246 288 308 301 306 323 330 341 356 1 3 354 336 333 338 337 336 348 20 22 9 8 3 1 350 339 340 342 12 17 8 13 36 30 27 26 34 38 41 38 40 56 49 47 46 32 84 89 50 65 57 47 86 143 133 145 155 152 159 154 148 148 144
18 14 3 7 8 359 360 6 5 6 7 4 3 8 7 2 3 3 2 356 5 9 358 334 308 298 284 294 311 331 349 15 21 2 355 360 352 338 334 338 347 353 13 24 9 7 1 4 353 347 337 349 14 16 6 3 20 40 40 39 36 30 35 43 63 81 79 73 65 47 44 47 52 61 77 87 96 145 146 137 146 143 131 123 109 100 55
20 20 15 12 11 10 6 4 9 13 9 3 3 7 9 8 5 2 356 353 359 348 333 322 321 313 316 328 334 338 6 32 35 16 3 6 358 342 331 340 357 1 5 21 15 14 4 357 356 349 344 4 14 23 11 355 6 37 45 57 49 39 34 39 45 63 73 78 79 76 71 63 65 66 84 100 111 116 117 127 131 128 117 108 108 99 72
13 18 21 17 13 14 11 3 5 13 12 9 9 7 11 10 7 2 358 357 352 348 347 339 337 347 3 355 346 360 11 23 33 32 18 6 360 356 355 358 3 2 0 9 13 8 10 1 352 345 346 6 9 18 10 353 3 39 40 47 54 50 45 39 41 50 53 58 61 64 66 63 66 77 89 96 100 105 110 110 108 103 106 111 116 110 108
11 13 18 18 17 17 14 12 6 6 12 13 12 13 16 15 10 6 4 6 6 7 359 357 8 26 28 10 11 13 26 25 31 35 35 23 16 23 16 10 8 5 2 6 3 2 5 359 350 349 357 3 6 20 8 359 356 24 41 50 56 51 49 43 37 43 47 45 58 79 81 72 68 71 74 74 75 81 87 96 100 107 110 118 122 128 133
11 13 15 19 18 17 15 18 14 11 8 12 13 14 19 20 16 15 15 15 15 10 10 15 25 33 41 39 33 31 27 27 30 32 37 43 37 35 29 21 14 7 10 3 354 1 6 2 0 4 355 359 355 17 13 1 1 15 35 41 52 57 57 51 40 38 43 43 37 35 41 53 69 71 74 75 82 89 96 97 100 105 111 115 121 117 115
10 10 13 17 23 24 19 20 16 14 15 14 13 15 17 23 26 23 21 20 18 18 16 18 25 37 38 38 39 35 33 30 29 29 35 44 52 49 41 29 18 13 9 0 6 9 11 12 12 10 359 356 355 10 16 6 11 21 28 44 43 49 54 60 54 48 44 47 47 47 47 41 44 64 72 74 83 91 95 99 103 114 117 119 116 114 116
10 8 13 12 18 24 27 24 20 19 22 22 19 17 17 26 30 29 27 25 24 24 25 22 29 32 31 35 38 39 37 35 33 32 32 35 41 44 41 28 19 15 12 14 16 16 19 18 18 16 10 359 1 355 16 22 28 31 31 38 42 44 48 54 59 56 51 51 56 58 56 54 51 58 73 83 85 87 98 95 84 72 71 78 104 108 109
18 6 7 17 19 22 31 30 26 23 25 26 25 24 24 25 29 34 30 29 25 25 28 30 34 37 36 34 36 37 39 40 41 39 37 38 37 37 37 35 15 9 16 24 19 19 24 26 20 17 16 16 10 5 17 31 35 41 40 40 44 43 49 51 54 50 48 43 48 49 52 56 56 55 61 70 73 75 84 87 80 75 81 95 99 91 89
17 15 9 14 17 20 24 30 30 29 30 26 25 24 23 25 28 32 34 33 32 28 26 30 36 40 40 40 42 41 37 35 43 47 44 43 37 33 32 32 26 26 25 25 22 26 26 28 26 25 25 21 23 31 38 40 40 37 40 38 39 41 44 43 50 50 47 48 45 51 51 55 54 59 60 60 54 53 60 63 65 63 58 56 61 66 72
14 17 13 16 13 18 28 29 28 33 36 31 30 25 25 24 30 32 33 35 33 31 30 28 33 37 37 38 40 39 32 22 23 34 47 48 44 37 34 28 31 35 35 37 30 26 33 31 32 36 41 43 41 41 47 49 45 43 42 43 45 45 46 48 47 46 46 49 50 49 47 46 48 47 51 58 60 56 55 57 60 57 55 55 56 59 62
3 18 29 12 16 23 23 30 33 35 36 37 30 26 29 30 29 34 39 38 38 35 32 29 26 30 37 39 41 39 34 28 24 23 37 44 44 39 32 33 35 42 43 45 45 44 42 40 43 46 47 50 50 51 50 51 53 52 50 52 53 54 53 51 52 52 53 52 48 48 47 49 48 44 48 53 57 56 59 63 61 59 60 60 60 61 62
355 359 18 13 10 19 27 30 29 35 50 48 40 31 26 28 31 29 35 41 40 37 38 36 31 25 26 35 41 42 38 35 29 26 32 36 38 34 28 34 40 44 47 49 54 54 54 54 56 56 57 58 58 56 55 53 51 52 56 60 56 56 57 56 58 59 59 61 61 59 57 54 54 54 52 48 42 43 45 49 53 57 59 58 55 55 55
348 349 22 21 7 10 24 35 38 30 37 52 50 39 27 21 21 25 31 41 46 43 40 38 37 35 29 27 31 40 46 42 37 34 34 34 40 37 39 45 46 49 50 50 52 53 59 61 62 62 62 62 61 57 54 53 58 62 57 57 63 62 59 60 60 61 62 63 64 64 63 61 59 59 58 55 52 51 45 45 48 48 49 51 53 56 62
345 344 19 12 356 28 22 34 39 39 37 38 42 42 36 30 19 20 21 32 46 48 45 44 44 37 33 33 27 24 28 36 40 34 36 36 37 42 44 46 52 54 54 54 56 60 64 64 65 68 69 71 71 70 64 61 59 60 64 67 64 65 67 65 64 63 63 62 62 64 66 65 62 59 55 53 53 52 54 53 53 50 52 51 47 47 50
346 353 14 25 1 12 19 18 32 46 49 44 40 45 47 49 35 18 20 25 37 47 49 48 46 48 42 39 40 38 29 23 36 36 32 41 43 45 49 51 49 49 49 48 48 47 49 53 58 62 65 67 70 72 70 67 62 59 56 57 60 60 60 61 63 63 62 63 60 59 60 61 64 66 64 62 57 52 50 52 53 53 51 50 50 46 46
342 14 2 359 20 7 17 25 26 31 39 48 50 46 40 46 50 45 32 25 22 36 51 53 49 45 49 50 47 43 42 37 37 36 33 40 47 49 49 46 45 44 48 51 50 51 45 44 49 52 54 57 62 66 69 68 66 67 63 60 62 64 64 62 59 58 62 61 61 63 65 64 62 65 66 63 62 60 57 54 51 52 53 54 54 51 50
349 5 10 357 6 15 17 21 33 24 7 29 41 49 46 36 34 33 38 43 34 24 37 47 47 45 44 47 52 53 51 48 46 44 42 41 42 44 44 47 46 45 46 47 49 48 44 43 45 48 51 53 54 56 57 58 59 59 62 63 61 58 57 60 65 61 60 62 64 66 67 68 67 63 62 59 62 63 62 59 56 52 53 54 54 54 53
353 355 7 15 15 20 24 24 14 13 23 23 22 27 40 51 51 34 30 36 37 41 42 46 53 52 50 47 51 54 58 60 54 48 47 43 47 47 46 44 44 42 43 48 47 46 43 41 40 42 47 49 50 49 50 52 54 55 55 56 56 57 56 52 54 58 58 58 57 56 57 61 64 66 65 65 64 64 64 63 59 54 51 52 52 53 54
328 353 7 20 12 17 23 18 26 29 26 20 19 16 15 26 32 30 37 39 39 38 35 43 53 53 54 52 52 60 60 60 65 60 52 51 52 52 49 47 45 39 34 34 42 47 46 42 43 42 44 48 47 48 49 50 51 53 53 53 55 55 54 55 57 57 56 54 54 56 55 52 51 54 55 55 56 56 58 59 59 58 58 58 59 62 65